This demonstration page uses our WeatherBlox Daily Observations layout. Learn more.

40.92945, -100.16068

Hourly Observations for December 9, 2017

Temp ( °F °C ) Dew Point ( °F °C ) Humidity (%) Winds ( mph kmh ) Pressure ( in mb ) Visibility ( mi km ) Precip ( " mm )
12:15 am 00:15 Clear 30 -1 21 -6 69 69 WNW 12 19 30.21 1023 10 16.09344 0 0
12:35 am 00:35 Clear 30 -1 21 -6.1 69 69 WNW 12 19 30.21 1023 10 16.09344 0 0
12:55 am 00:55 Clear 29 -1.9 21 -6.3 72 72 WNW 10 17 30.24 1024 10 16.09344 0 0
1:15 am 01:15 Partly Cloudy 28 -2 21 -6.1 74 74 WNW 9 15 30.24 1024 10 16.09344 0 0
1:35 am 01:35 Clear 28 -2.5 20 -6.4 75 75 WNW 9 15 30.24 1024 10 16.09344 0 0
1:55 am 01:55 Clear 29 -1.8 21 -6 73 73 WNW 12 19 30.24 1024 10 16.09344 0 0
2:15 am 02:15 Clear 28 -2 21 -6 74 74 WNW 10 17 30.24 1024 10 16.09344 0 0
2:35 am 02:35 Clear 29 -1.8 21 -5.9 74 74 WNW 12 19 30.24 1024 10 16.09344 0 0
2:55 am 02:55 Clear 30 -1.2 22 -5.7 72 72 NW 13 20 30.21 1023 10 16.09344 0 0
3:15 am 03:15 Clear 30 -1 21 -6 69 69 NW 10 17 30.21 1023 10 16.09344 0 0
3:35 am 03:35 Clear 29 -1.5 21 -6.3 70 70 NW 10 17 30.24 1024 10 16.09344 0 0
3:55 am 03:55 Clear 28 -2.1 20 -6.5 72 72 NW 8 13 30.24 1024 10 16.09344 0 0
4:15 am 04:15 Clear 28 -2.2 21 -6.3 74 74 WNW 10 17 30.24 1024 10 16.09344 0 0
4:35 am 04:35 Clear 30 -1.2 22 -5.8 71 71 NW 13 20 30.21 1023 10 16.09344 0 0
4:55 am 04:55 Clear 30 -1.1 22 -5.8 71 71 NW 8 13 30.21 1023 10 16.09344 0 0
5:15 am 05:15 Clear 30 -1 22 -5.7 71 71 W 12 19 30.21 1023 10 16.09344 0 0
5:35 am 05:35 Clear 31 -0.7 21 -6 68 68 WNW 14 22 30.24 1024 10 16.09344 0 0
5:55 am 05:55 Clear 30 -1 21 -6.1 69 69 WNW 14 22 30.24 1024 10 16.09344 0 0
6:15 am 06:15 Clear 30 -1 21 -6.1 69 69 WNW 14 22 30.24 1024 10 16.09344 0 0
6:35 am 06:35 Clear 30 -1 21 -6.3 68 68 WNW 16 26 30.24 1024 10 16.09344 0 0
6:55 am 06:55 Clear 31 -0.7 20 -6.5 65 65 WNW 16 26 30.27 1025 10 16.09344 0 0
7:15 am 07:15 Clear 30 -1 20 -6.6 66 66 WNW 15 24 30.3 1026 10 16.09344 0 0
7:35 am 07:35 Clear 29 -1.4 20 -6.7 68 68 NW 14 22 30.3 1026 10 16.09344 0 0
7:55 am 07:55 Sunny 29 -1.7 20 -6.7 69 69 NW 12 19 30.3 1026 10 16.09344 0 0
8:15 am 08:15 Sunny 29 -1.6 20 -6.7 69 69 NW 9 15 30.3 1026 10 16.09344 0 0
8:35 am 08:35 Sunny 29 -1.5 20 -6.6 69 69 NW 10 17 30.33 1027 10 16.09344 0 0
8:55 am 08:55 Sunny 31 -0.7 20 -6.6 65 65 NW 10 17 30.33 1027 10 16.09344 0 0
9:15 am 09:15 Sunny 32 0 21 -6.2 63 63 NW 9 15 30.3 1026 10 16.09344 0 0
9:35 am 09:35 Sunny 34 0.9 21 -5.9 61 61 NW 10 17 30.3 1026 10 16.09344 0 0
9:55 am 09:55 Sunny 36 2.4 22 -5.6 56 56 NW 12 19 30.27 1025 10 16.09344 0 0
10:15 am 10:15 Sunny 38 3.5 22 -5.5 52 52 NW 12 19 30.27 1025 10 16.09344 0 0
10:35 am 10:35 Sunny 40 4.7 23 -5.1 49 49 NW 8 13 30.3 1026 10 16.09344 0 0
10:55 am 10:55 Sunny 43 6.2 22 -5.8 42 42 NNW 13 20 30.27 1025 10 16.09344 0 0
11:15 am 11:15 Sunny 44 6.9 21 -6 40 40 NNW 13 20 30.27 1025 10 16.09344 0 0
11:35 am 11:35 Sunny 46 7.6 21 -6.3 37 37 NNW 14 22 30.27 1025 10 16.09344 0 0
11:55 am 11:55 Sunny 47 8.2 20 -6.7 34 34 NNW 18 30 30.27 1025 10 16.09344 0 0
12:15 pm 12:15 Sunny 48 8.7 20 -6.7 33 33 NNW 14 22 30.21 1023 10 16.09344 0 0
12:35 pm 12:35 Sunny 49 9.5 20 -6.6 32 32 NW 15 24 30.21 1023 10 16.09344 0 0
12:55 pm 12:55 Sunny 49 9.7 19 -7 30 30 NW 13 20 30.21 1023 10 16.09344 0 0
1:15 pm 13:15 Sunny 51 10.3 19 -7.5 28 28 NW 16 26 30.18 1022 10 16.09344 0 0
1:35 pm 13:35 Sunny 52 11 18 -7.6 27 27 WNW 20 31 30.18 1022 10 16.09344 0 0
1:55 pm 13:55 Sunny 53 11.6 18 -7.7 25 25 NW 16 26 30.15 1021 10 16.09344 0 0
2:15 pm 14:15 Sunny 53 11.6 18 -8 25 25 NW 16 26 30.15 1021 10 16.09344 0 0
2:35 pm 14:35 Sunny 54 12 17 -8.1 24 24 NW 15 24 30.15 1021 10 16.09344 0 0
2:55 pm 14:55 Sunny 54 12.1 17 -8.1 24 24 NNW 18 30 30.15 1021 10 16.09344 0 0
3:15 pm 15:15 Sunny 54 12.4 17 -8.1 23 23 NW 15 24 30.15 1021 10 16.09344 0 0
3:35 pm 15:35 Sunny 54 12.2 17 -8.2 23 23 NW 13 20 30.15 1021 10 16.09344 0 0
3:55 pm 15:55 Sunny 54 12.2 17 -8.4 23 23 NW 12 19 30.15 1021 10 16.09344 0 0
4:15 pm 16:15 Sunny 53 11.5 17 -8.5 24 24 NW 9 15 30.15 1021 10 16.09344 0 0
4:35 pm 16:35 Sunny 50 10.2 18 -8 27 27 NW 5 7 30.18 1022 10 16.09344 0 0
4:55 pm 16:55 Sunny 49 9.3 17 -8.2 28 28 WNW 6 9 30.18 1022 10 16.09344 0 0
5:15 pm 17:15 Clear 46 7.6 17 -8.5 31 31 W 5 7 30.21 1023 10 16.09344 0 0
5:35 pm 17:35 Clear 44 6.8 16 -9 32 32 WSW 5 7 30.21 1023 10 16.09344 0 0
5:55 pm 17:55 Clear 43 6 15 -9.5 32 32 SW 6 9 30.21 1023 10 16.09344 0 0
6:15 pm 18:15 Clear 38 3.5 15 -9.5 38 38 SW 8 13 30.24 1024 10 16.09344 0 0
6:35 pm 18:35 Clear 36 2.4 15 -9.5 41 41 WSW 6 9 30.21 1023 10 16.09344 0 0
6:55 pm 18:55 Clear 36 2 15 -9.3 43 43 WSW 6 9 30.21 1023 10 16.09344 0 0
7:15 pm 19:15 Clear 33 0.8 15 -9.5 46 46 WSW 6 9 30.24 1024 10 16.09344 0 0
7:35 pm 19:35 Clear 32 0.1 15 -9.5 49 49 WSW 6 9 30.24 1024 10 16.09344 0 0
7:55 pm 19:55 Clear 33 0.5 14 -10 46 46 W 9 15 30.24 1024 10 16.09344 0 0
8:15 pm 20:15 Clear 36 2.1 16 -8.9 44 44 W 10 17 30.21 1023 10 16.09344 0 0
8:35 pm 20:35 Clear 35 1.7 16 -9 45 45 W 9 15 30.24 1024 10 16.09344 0 0
8:55 pm 20:55 Clear 30 -0.9 14 -10 51 51 WNW 7 11 30.24 1024 10 16.09344 0 0
9:15 pm 21:15 Clear 29 -1.9 15 -9.7 56 56 NNW 8 13 30.3 1026 10 16.09344 0 0
9:35 pm 21:35 Clear 28 -2 14 -10 55 55 NNW 9 15 30.3 1026 10 16.09344 0 0
9:55 pm 21:55 Clear 28 -2.2 14 -10.1 55 55 WNW 7 11 30.3 1026 10 16.09344 0 0
10:15 pm 22:15 Clear 30 -1.2 14 -9.8 52 52 WNW 9 15 30.3 1026 10 16.09344 0 0
10:35 pm 22:35 Clear 31 -0.7 14 -10 50 50 WNW 10 17 30.27 1025 10 16.09344 0 0
10:55 pm 22:55 Clear 32 0.2 16 -9.1 50 50 WNW 13 20 30.27 1025 10 16.09344 0 0
11:15 pm 23:15 Clear 38 3.1 17 -8.5 43 43 WNW 15 24 30.24 1024 10 16.09344 0 0
11:35 pm 23:35 Clear 38 3.1 16 -8.8 42 42 WNW 13 20 30.24 1024 10 16.09344 0 0
11:55 pm 23:55 Clear 34 1.1 16 -9 47 47 WNW 13 20 30.27 1025 10 16.09344 0 0

Powered by AerisWeather